カタログに戻る

STARLINK-3547

運用中通信VLEO
NORAD 51889·PAYLOAD·🇺🇸 United States

打ち上げ Mar 3, 2022 から Cape Canaveral Space Force Station

Loading…

次のパス (今後24時間)

TLE

最新Source: CelesTrak SupGP

元期: Sep 14, 2026, 21:42 UTC

1 51889C 22022AP  26257.90465278  .00012035  00000+0  35550-3 0  2570
2 51889  53.1570 214.2168 0001426  95.5563 193.9484 15.34392022    14

AllMySatでSTARLINK-3547をリアルタイム追跡

Download on the App Store